Location: Forst
(46.9333°N, 15.4333°E)
Time: 05:55:02
(UTC+00:00)

Lacrosse 5 rocket - Pass Details

Date: 20 April 2021
Orbit: 460 x 634 km, 57.0° (Epoch: 12 May)

Event Time Altitude Azimuth Distance (km) Brightness Sun altitude
Rises 22:33:51 0° 308° (NW) 2,806 5.5 -31.0°
Reaches altitude 10° 22:36:04 10° 309° (NW) 1,929 4.6 -31.0°
Enters shadow 22:37:41 22° 310° (NW) 1,314 3.6 -31.1°
